Weather reports worldwide

Advertisment
Bangkok, Thailand (48455): temperature & dewpoint: 15.11.2017 20:00:00 - 21.11.2017 20:00:00 (ICT)Bangkok, Thailand (48455): wind speed: 15.11.2017 20:00:00 - 21.11.2017 20:00:00 (ICT)Bangkok, Thailand (48455): wind direction: 15.11.2017 20:00:00 - 21.11.2017 20:00:00 (ICT)Bangkok, Thailand (48455): reduced air pressure: 15.11.2017 20:00:00 - 21.11.2017 20:00:00 (ICT)Bangkok, Thailand (48455): visibility: 15.11.2017 20:00:00 - 21.11.2017 20:00:00 (ICT)
Date & Time tt [°C] td [°C] ff [km/h] ff [kn] dd ppp [hPa] vv [km]
21.11.2017 20:00:00 - - - - - - -
21.11.2017 19:00:00 28,5 25,4 0 0 N 1008,2 8
21.11.2017 18:00:00 - - - - - - -
21.11.2017 17:00:00 - - - - - - -
21.11.2017 16:00:00 31,6 22,9 0 0 N 1008,2 8
21.11.2017 15:00:00 - - - - - - -
21.11.2017 14:00:00 - - - - - - -
21.11.2017 13:00:00 29,8 23,7 0 0 N 1009,4 8
21.11.2017 12:00:00 - - - - - - -
21.11.2017 11:00:00 - - - - - - -
21.11.2017 10:00:00 29,0 25,3 0 0 N 1009,5 8
21.11.2017 09:00:00 - - - - - - -
21.11.2017 08:00:00 - - - - - - -
21.11.2017 07:00:00 25,5 23,7 5 3 E 1008,7 7
21.11.2017 06:00:00 - - - - - - -
21.11.2017 05:00:00 - - - - - - -
21.11.2017 04:00:00 25,5 24,9 0 0 N 1007,7 8
21.11.2017 03:00:00 - - - - - - -
21.11.2017 02:00:00 - - - - - - -
21.11.2017 01:00:00 25,8 24,9 0 0 N 1008,5 8
21.11.2017 00:00:00 - - - - - - -
20.11.2017 23:00:00 - - - - - - -
20.11.2017 22:00:00 25,5 25,1 0 0 N 1010,1 8
20.11.2017 21:00:00 - - - - - - -
20.11.2017 20:00:00 - - - - - - -
20.11.2017 19:00:00 25,2 24,5 0 0 N 1008,4 7
20.11.2017 18:00:00 - - - - - - -
20.11.2017 17:00:00 - - - - - - -
20.11.2017 16:00:00 28,6 24,3 0 0 N 1008,6 8
20.11.2017 15:00:00 - - - - - - -
20.11.2017 14:00:00 - - - - - - -
20.11.2017 13:00:00 30,0 24,3 4 2 ENE 1008,7 8
20.11.2017 12:00:00 - - - - - - -
20.11.2017 11:00:00 - - - - - - -
20.11.2017 10:00:00 27,2 25,9 0 0 N 1010,6 8
20.11.2017 09:00:00 - - - - - - -
20.11.2017 08:00:00 - - - - - - -
20.11.2017 07:00:00 25,3 24,9 0 0 N 1009,6 6
20.11.2017 06:00:00 - - - - - - -
20.11.2017 05:00:00 - - - - - - -
20.11.2017 04:00:00 25,2 24,8 0 0 N 1008,1 8
20.11.2017 03:00:00 - - - - - - -
20.11.2017 02:00:00 - - - - - - -
20.11.2017 01:00:00 26,6 25,6 0 0 N 1009,3 8
20.11.2017 00:00:00 - - - - - - -
19.11.2017 23:00:00 - - - - - - -
19.11.2017 22:00:00 27,2 24,2 0 0 N 1010,3 8
19.11.2017 21:00:00 - - - - - - -
19.11.2017 20:00:00 - - - - - - -
19.11.2017 19:00:00 27,2 26,2 0 0 N 1007,7 8
19.11.2017 18:00:00 - - - - - - -
19.11.2017 17:00:00 - - - - - - -
19.11.2017 16:00:00 29,0 23,8 0 0 N 1005,6 8
19.11.2017 15:00:00 - - - - - - -
19.11.2017 14:00:00 - - - - - - -
19.11.2017 13:00:00 32,2 26,1 4 2 WNW 1006,5 8
19.11.2017 12:00:00 - - - - - - -
19.11.2017 11:00:00 - - - - - - -
19.11.2017 10:00:00 32,3 25,2 8 4 NNW 1008,6 8
19.11.2017 09:00:00 - - - - - - -
19.11.2017 08:00:00 - - - - - - -
19.11.2017 07:00:00 27,5 25,4 0 0 N 1007,4 7
19.11.2017 06:00:00 - - - - - - -
19.11.2017 05:00:00 - - - - - - -
19.11.2017 04:00:00 28,3 26,8 0 0 N 1006,7 8
19.11.2017 03:00:00 - - - - - - -
19.11.2017 02:00:00 - - - - - - -
19.11.2017 01:00:00 28,6 26,9 0 0 N 1007,6 8
19.11.2017 00:00:00 - - - - - - -
18.11.2017 23:00:00 - - - - - - -
18.11.2017 22:00:00 29,3 26,6 0 0 N 1008,2 8
18.11.2017 21:00:00 - - - - - - -
18.11.2017 20:00:00 - - - - - - -
18.11.2017 19:00:00 31,0 26,5 0 0 N 1007,7 8
18.11.2017 18:00:00 - - - - - - -
18.11.2017 17:00:00 - - - - - - -
18.11.2017 16:00:00 33,0 26,0 0 0 N 1005,7 8
18.11.2017 15:00:00 - - - - - - -
18.11.2017 14:00:00 - - - - - - -
18.11.2017 13:00:00 34,2 24,3 4 2 W 1007,1 8
18.11.2017 12:00:00 - - - - - - -
18.11.2017 11:00:00 - - - - - - -
18.11.2017 10:00:00 31,3 25,2 0 0 N 1009,0 8
18.11.2017 09:00:00 - - - - - - -
18.11.2017 08:00:00 - - - - - - -
18.11.2017 07:00:00 26,5 25,8 0 0 N 1008,2 8
18.11.2017 06:00:00 - - - - - - -
18.11.2017 05:00:00 - - - - - - -
18.11.2017 04:00:00 26,8 25,9 0 0 N 1007,4 8
18.11.2017 03:00:00 - - - - - - -
18.11.2017 02:00:00 - - - - - - -
18.11.2017 01:00:00 27,4 25,8 0 0 N 1009,3 8
18.11.2017 00:00:00 - - - - - - -
17.11.2017 23:00:00 - - - - - - -
17.11.2017 22:00:00 28,0 25,1 0 0 N 1009,6 8
17.11.2017 21:00:00 - - - - - - -
17.11.2017 20:00:00 - - - - - - -
17.11.2017 19:00:00 29,3 25,8 0 0 N 1007,3 8
17.11.2017 18:00:00 - - - - - - -
17.11.2017 17:00:00 - - - - - - -
17.11.2017 16:00:00 31,6 25,9 0 0 N 1006,4 8
17.11.2017 15:00:00 - - - - - - -
17.11.2017 14:00:00 - - - - - - -
17.11.2017 13:00:00 33,3 25,0 0 0 N 1008,9 8
17.11.2017 12:00:00 - - - - - - -
17.11.2017 11:00:00 - - - - - - -
17.11.2017 10:00:00 30,7 25,9 5 3 WNW 1010,7 8
17.11.2017 09:00:00 - - - - - - -
17.11.2017 08:00:00 - - - - - - -
17.11.2017 07:00:00 27,0 26,0 0 0 N 1009,5 7
17.11.2017 06:00:00 - - - - - - -
17.11.2017 05:00:00 - - - - - - -
17.11.2017 04:00:00 26,6 25,3 0 0 N 1008,8 8
17.11.2017 03:00:00 - - - - - - -
17.11.2017 02:00:00 - - - - - - -
17.11.2017 01:00:00 27,5 25,7 0 0 N 1010,2 8
17.11.2017 00:00:00 - - - - - - -
16.11.2017 23:00:00 - - - - - - -
16.11.2017 22:00:00 27,8 26,0 0 0 N 1011,1 8
16.11.2017 21:00:00 - - - - - - -
16.11.2017 20:00:00 - - - - - - -
16.11.2017 19:00:00 28,5 26,7 0 0 N 1009,0 8
16.11.2017 18:00:00 - - - - - - -
16.11.2017 17:00:00 - - - - - - -
16.11.2017 16:00:00 30,2 25,4 4 2 WNW 1008,6 8
16.11.2017 15:00:00 - - - - - - -
16.11.2017 14:00:00 - - - - - - -
16.11.2017 13:00:00 32,0 24,8 4 2 ENE 1010,1 8
16.11.2017 12:00:00 - - - - - - -
16.11.2017 11:00:00 - - - - - - -
16.11.2017 10:00:00 30,8 25,0 0 0 N 1012,0 8
16.11.2017 09:00:00 - - - - - - -
16.11.2017 08:00:00 - - - - - - -
16.11.2017 07:00:00 26,8 24,8 0 0 N 1009,9 8
16.11.2017 06:00:00 - - - - - - -
16.11.2017 05:00:00 - - - - - - -
16.11.2017 04:00:00 26,3 23,2 0 0 N 1009,0 8
16.11.2017 03:00:00 - - - - - - -
16.11.2017 02:00:00 - - - - - - -
16.11.2017 01:00:00 26,8 23,4 0 0 N 1009,9 8
16.11.2017 00:00:00 - - - - - - -
15.11.2017 23:00:00 - - - - - - -
15.11.2017 22:00:00 28,8 23,6 0 0 N 1010,6 8
15.11.2017 21:00:00 - - - - - - -
15.11.2017 20:00:00 - - - - - - -

tt = temperature
td = dewpoint
ff = wind speed
dd = wind direction
ppp = reduced air pressure
vv = visibility

Next stations